{"data":{"norad_id":59367,"epoch":"2026-09-21T15:27:38.781504Z","epoch_age_seconds":63296,"freshness":"FRESH","line1":"1 59367U 24060V   26264.64419886  .00000075  00000+0  12238-4 0  9999","line2":"2 59367  43.0034 233.0270 0001104 262.2631  97.8096 15.27576891140039","mean_motion":15.27576891,"eccentricity":0.0001104,"inclination_deg":43.0034,"raan_deg":233.027,"arg_perigee_deg":262.2631,"mean_anomaly_deg":97.8096,"bstar":1.2238e-5,"rev_number":14003,"period_min":94.266940569998,"perigee_km":482.30092954713,"apogee_km":483.81588149267,"semimajor_km":6861.1954055199,"source":"CELESTRAK","updated_at":"2026-09-22T09:00:48.906851Z"}}